RH
77 85 86 79 75 73 76 81 78 68 60 58 58 58 55 51 46 44 44 43 41 45 46 46 51 53 52 53 51 51 55 51 48 50 50 48 49 49 46 48 56 57
72 81 84 79 75 75 78 79 72 65 61 58 57 59 58 55 53 50 48 45 42 44 46 47 50 51 52 54 51 49 52 51 49 50 48 47 49 48 45 48 55 54
70 75 79 78 76 74 75 75 70 66 62 59 59 61 60 60 61 58 52 52 51 48 48 50 50 50 51 52 50 49 49 51 53 51 48 48 48 47 46 49 52 48
73 77 80 79 78 76 75 74 69 65 63 62 63 63 63 63 64 61 55 55 58 52 47 47 49 52 52 50 49 49 49 51 54 51 49 50 48 47 48 50 51 49
74 80 81 80 79 77 75 70 64 62 63 63 63 64 65 65 65 64 60 59 60 56 52 51 51 51 51 50 49 49 50 51 52 51 51 53 50 47 48 49 51 53
73 81 85 83 80 78 73 66 61 64 67 64 64 65 66 66 66 65 64 63 61 58 57 57 55 50 46 46 46 47 49 50 50 49 51 54 53 51 49 48 49 48
73 84 88 85 81 77 72 66 65 70 70 66 65 68 69 68 66 65 65 65 62 60 58 58 56 50 44 41 41 45 48 49 49 49 49 52 54 53 51 47 46 44
73 82 84 82 79 76 72 70 70 72 71 68 68 69 69 68 67 66 65 64 63 61 59 56 55 52 47 42 39 43 45 43 44 45 44 47 50 51 51 50 47 43
72 78 80 79 76 74 73 71 73 75 73 70 70 68 67 67 67 66 64 63 64 64 61 59 56 54 52 46 41 41 41 38 37 36 36 40 43 42 44 50 48 45
72 74 78 78 76 76 74 72 76 78 74 72 70 68 67 67 66 64 63 64 65 65 64 63 60 57 56 51 46 43 41 39 38 36 33 34 36 35 37 46 51 51
75 75 78 79 78 77 76 77 81 79 75 73 70 68 67 67 65 64 65 66 68 66 66 67 65 63 60 57 53 48 44 43 43 43 38 34 33 32 34 44 53 56
78 81 83 82 81 80 80 80 80 79 76 73 69 68 67 65 65 66 67 68 69 68 67 67 68 66 64 61 58 53 47 44 45 48 46 40 35 34 36 46 56 58
84 86 86 83 80 79 81 80 78 77 76 72 68 66 65 64 66 69 69 68 67 66 65 66 67 67 65 63 61 56 52 48 47 50 50 46 40 37 39 48 58 60
88 86 81 80 79 77 77 76 74 75 74 70 68 66 63 64 67 67 66 65 65 65 66 67 66 67 68 66 63 59 55 51 49 50 51 49 45 41 42 48 56 61
84 81 76 77 79 75 73 71 70 72 72 68 66 65 64 63 64 63 62 62 62 66 69 70 69 70 70 69 65 59 54 50 48 49 52 53 49 44 43 46 51 57
84 82 79 79 79 76 73 71 70 70 68 65 65 64 63 62 60 59 59 59 62 66 68 69 71 73 73 72 67 59 52 50 47 45 48 53 53 46 44 46 48 52
90 88 85 83 82 79 77 75 74 73 70 68 66 65 64 64 64 65 64 65 69 71 69 67 70 73 73 72 67 59 54 52 48 43 43 49 52 47 43 44 47 50
90 89 85 83 82 80 79 80 80 77 72 69 68 66 66 69 71 73 73 74 76 76 74 75 74 74 75 72 63 57 56 53 49 47 43 44 49 47 44 45 48 52
89 88 84 84 85 82 83 84 82 78 75 76 77 76 77 80 82 83 83 83 82 80 78 79 78 78 81 75 62 56 55 50 49 51 46 43 45 44 44 45 47 50
90 89 85 84 85 85 87 86 85 84 84 86 89 88 86 87 88 88 87 85 81 78 77 76 77 81 81 73 63 60 57 51 51 55 53 51 51 50 49 50 49 49
88 88 86 84 86 88 88 87 86 88 88 89 92 90 85 84 84 83 82 80 78 77 77 76 76 75 73 69 66 66 63 56 52 52 53 55 55 53 51 52 54 56
86 85 84 87 89 88 87 86 86 88 89 90 91 88 83 81 80 79 79 79 77 73 70 69 65 62 64 67 67 65 62 58 55 55 56 56 54 51 48 50 53 56
88 87 87 89 91 89 87 88 88 88 89 90 91 88 84 80 78 78 79 79 77 72 67 63 59 56 56 59 59 57 55 54 56 61 64 63 62 58 54 54 56 55
92 93 93 92 92 92 93 93 92 90 89 89 89 88 84 78 76 77 79 81 80 78 75 71 68 64 59 55 53 51 49 48 52 59 63 65 65 63 60 62 65 62
94 94 94 94 94 95 95 95 94 92 89 85 83 81 79 77 77 78 79 81 81 81 80 77 73 69 66 62 59 57 56 54 53 54 56 57 57 58 60 63 65 64
93 92 92 93 94 95 94 94 93 90 86 82 80 80 80 79 78 78 78 79 79 80 79 78 74 71 69 68 67 66 65 64 63 64 66 65 62 62 63 63 60 59